owner,sensor,date,latitude,longitude,air_temperature,qcFlag 
COMPS,ioos:station:USF.COMPS:ARP:1,2011-11-01T00:00:00Z,28.4330,-82.6670,21.37,1111122 
COMPS,ioos:station:USF.COMPS:ARP:1,2011-11-01T00:06:00Z,28.4330,-82.6670,21.28,1111122 
COMPS,ioos:station:USF.COMPS:ARP:1,2011-11-01T00:12:00Z,28.4330,-82.6670,20.96,1111122 
COMPS,ioos:station:USF.COMPS:ARP:1,2011-11-01T00:18:00Z,28.4330,-82.6670,20.83,1111122 
COMPS,ioos:station:USF.COMPS:ARP:1,2011-11-01T00:24:00Z,28.4330,-82.6670,20.74,1111122 
COMPS,ioos:station:USF.COMPS:ARP:1,2011-11-01T00:30:00Z,28.4330,-82.6670,20.66,1111122 
COMPS,ioos:station:USF.COMPS:ARP:1,2011-11-01T00:36:00Z,28.4330,-82.6670,20.55,1111122 
COMPS,ioos:station:USF.COMPS:ARP:1,2011-11-01T00:42:00Z,28.4330,-82.6670,20.41,1111122 
COMPS,ioos:station:USF.COMPS:ARP:1,2011-11-01T00:48:00Z,28.4330,-82.6670,20.25,1111122 
COMPS,ioos:station:USF.COMPS:ARP:1,2011-11-01T00:54:00Z,28.4330,-82.6670,20.18,1111122 
COMPS,ioos:station:USF.COMPS:ARP:1,2011-11-01T02:00:00Z,28.4330,-82.6670,18.98,1111122 
COMPS,ioos:station:USF.COMPS:ARP:1,2011-11-01T02:06:00Z,28.4330,-82.6670,19.05,1111122 
COMPS,ioos:station:USF.COMPS:ARP:1,2011-11-01T02:12:00Z,28.4330,-82.6670,19.04,1111122 
COMPS,ioos:station:USF.COMPS:ARP:1,2011-11-01T02:18:00Z,28.4330,-82.6670,19.03,1111122 
COMPS,ioos:station:USF.COMPS:ARP:1,2011-11-01T02:24:00Z,28.4330,-82.6670,19.03,1111122 
COMPS,ioos:station:USF.COMPS:ARP:1,2011-11-01T02:30:00Z,28.4330,-82.6670,18.93,1111122 
COMPS,ioos:station:USF.COMPS:ARP:1,2011-11-01T02:36:00Z,28.4330,-82.6670,18.89,1111122 
COMPS,ioos:station:USF.COMPS:ARP:1,2011-11-01T02:42:00Z,28.4330,-82.6670,18.75,1111122 
COMPS,ioos:station:USF.COMPS:ARP:1,2011-11-01T02:48:00Z,28.4330,-82.6670,18.75,1111122 
COMPS,ioos:station:USF.COMPS:ARP:1,2011-11-01T02:54:00Z,28.4330,-82.6670,18.89,1111122 
COMPS,ioos:station:USF.COMPS:ARP:1,2011-11-01T03:00:00Z,28.4330,-82.6670,18.72,1111122 
COMPS,ioos:station:USF.COMPS:ARP:1,2011-11-01T03:06:00Z,28.4330,-82.6670,18.58,1111122 
COMPS,ioos:station:USF.COMPS:ARP:1,2011-11-01T03:12:00Z,28.4330,-82.6670,18.48,1111122 
COMPS,ioos:station:USF.COMPS:ARP:1,2011-11-01T03:18:00Z,28.4330,-82.6670,18.4,1111122 
COMPS,ioos:station:USF.COMPS:ARP:1,2011-11-01T03:24:00Z,28.4330,-82.6670,18.34,1111122 
COMPS,ioos:station:USF.COMPS:ARP:1,2011-11-01T03:30:00Z,28.4330,-82.6670,18.4,1111122 
COMPS,ioos:station:USF.COMPS:ARP:1,2011-11-01T03:36:00Z,28.4330,-82.6670,18.48,1111122 
COMPS,ioos:station:USF.COMPS:ARP:1,2011-11-01T03:42:00Z,28.4330,-82.6670,18.49,1111122 
COMPS,ioos:station:USF.COMPS:ARP:1,2011-11-01T03:48:00Z,28.4330,-82.6670,18.37,1111122 
COMPS,ioos:station:USF.COMPS:ARP:1,2011-11-01T03:54:00Z,28.4330,-82.6670,18.42,1111122 
COMPS,ioos:station:USF.COMPS:ARP:1,2011-11-01T04:00:00Z,28.4330,-82.6670,18.4,1111122 
COMPS,ioos:station:USF.COMPS:ARP:1,2011-11-01T06:00:00Z,28.4330,-82.6670,17.36,1111122 
COMPS,ioos:station:USF.COMPS:ARP:1,2011-11-01T06:06:00Z,28.4330,-82.6670,17.22,1111122 
COMPS,ioos:station:USF.COMPS:ARP:1,2011-11-01T06:12:00Z,28.4330,-82.6670,17.14,1111122 
COMPS,ioos:station:USF.COMPS:ARP:1,2011-11-01T06:18:00Z,28.4330,-82.6670,17.05,1111122 
COMPS,ioos:station:USF.COMPS:ARP:1,2011-11-01T06:24:00Z,28.4330,-82.6670,16.99,1111122 
COMPS,ioos:station:USF.COMPS:ARP:1,2011-11-01T06:30:00Z,28.4330,-82.6670,16.89,1111122 
COMPS,ioos:station:USF.COMPS:ARP:1,2011-11-01T06:36:00Z,28.4330,-82.6670,16.76,1111122 
COMPS,ioos:station:USF.COMPS:ARP:1,2011-11-01T06:42:00Z,28.4330,-82.6670,16.67,1111122 
COMPS,ioos:station:USF.COMPS:ARP:1,2011-11-01T06:48:00Z,28.4330,-82.6670,16.57,1111122 
COMPS,ioos:station:USF.COMPS:ARP:1,2011-11-01T06:54:00Z,28.4330,-82.6670,16.68,1111122 
COMPS,ioos:station:USF.COMPS:ARP:1,2011-11-01T08:00:00Z,28.4330,-82.6670,15.93,1111122 
COMPS,ioos:station:USF.COMPS:ARP:1,2011-11-01T08:06:00Z,28.4330,-82.6670,15.96,1111122 
COMPS,ioos:station:USF.COMPS:ARP:1,2011-11-01T08:12:00Z,28.4330,-82.6670,15.95,1111122 
COMPS,ioos:station:USF.COMPS:ARP:1,2011-11-01T08:18:00Z,28.4330,-82.6670,15.93,1111122 
COMPS,ioos:station:USF.COMPS:ARP:1,2011-11-01T08:24:00Z,28.4330,-82.6670,15.93,1111122 
COMPS,ioos:station:USF.COMPS:ARP:1,2011-11-01T08:30:00Z,28.4330,-82.6670,15.94,1111122 
COMPS,ioos:station:USF.COMPS:ARP:1,2011-11-01T08:36:00Z,28.4330,-82.6670,15.94,1111122 
COMPS,ioos:station:USF.COMPS:ARP:1,2011-11-01T08:42:00Z,28.4330,-82.6670,15.92,1111122 
COMPS,ioos:station:USF.COMPS:ARP:1,2011-11-01T08:48:00Z,28.4330,-82.6670,15.89,1111122 
COMPS,ioos:station:USF.COMPS:ARP:1,2011-11-01T08:54:00Z,28.4330,-82.6670,15.94,1111122 
COMPS,ioos:station:USF.COMPS:ARP:1,2011-11-01T09:00:00Z,28.4330,-82.6670,15.9,1111122 
COMPS,ioos:station:USF.COMPS:ARP:1,2011-11-01T09:06:00Z,28.4330,-82.6670,15.76,1111122 
COMPS,ioos:station:USF.COMPS:ARP:1,2011-11-01T09:12:00Z,28.4330,-82.6670,15.66,1111122 
COMPS,ioos:station:USF.COMPS:ARP:1,2011-11-01T09:18:00Z,28.4330,-82.6670,15.6,1111122 
COMPS,ioos:station:USF.COMPS:ARP:1,2011-11-01T09:24:00Z,28.4330,-82.6670,15.54,1111122 
COMPS,ioos:station:USF.COMPS:ARP:1,2011-11-01T09:30:00Z,28.4330,-82.6670,15.52,1111122 
COMPS,ioos:station:USF.COMPS:ARP:1,2011-11-01T09:36:00Z,28.4330,-82.6670,15.44,1111122 
COMPS,ioos:station:USF.COMPS:ARP:1,2011-11-01T09:42:00Z,28.4330,-82.6670,15.4,1111122 
COMPS,ioos:station:USF.COMPS:ARP:1,2011-11-01T09:48:00Z,28.4330,-82.6670,15.33,1111122 
COMPS,ioos:station:USF.COMPS:ARP:1,2011-11-01T09:54:00Z,28.4330,-82.6670,15.39,1111122 
COMPS,ioos:station:USF.COMPS:ARP:1,2011-11-01T10:00:00Z,28.4330,-82.6670,15.4,1111122 
COMPS,ioos:station:USF.COMPS:ARP:1,2011-11-01T11:00:00Z,28.4330,-82.6670,14.76,1111122 
COMPS,ioos:station:USF.COMPS:ARP:1,2011-11-01T11:06:00Z,28.4330,-82.6670,14.7,1111122 
COMPS,ioos:station:USF.COMPS:ARP:1,2011-11-01T11:12:00Z,28.4330,-82.6670,14.65,1111122 
COMPS,ioos:station:USF.COMPS:ARP:1,2011-11-01T11:18:00Z,28.4330,-82.6670,14.57,1111122 
COMPS,ioos:station:USF.COMPS:ARP:1,2011-11-01T11:24:00Z,28.4330,-82.6670,14.49,1111122 
COMPS,ioos:station:USF.COMPS:ARP:1,2011-11-01T11:30:00Z,28.4330,-82.6670,14.46,1111122 
COMPS,ioos:station:USF.COMPS:ARP:1,2011-11-01T11:36:00Z,28.4330,-82.6670,14.45,1111122 
COMPS,ioos:station:USF.COMPS:ARP:1,2011-11-01T11:42:00Z,28.4330,-82.6670,14.38,1111122 
COMPS,ioos:station:USF.COMPS:ARP:1,2011-11-01T11:48:00Z,28.4330,-82.6670,14.4,1111122 
COMPS,ioos:station:USF.COMPS:ARP:1,2011-11-01T11:54:00Z,28.4330,-82.6670,14.51,1111122 
COMPS,ioos:station:USF.COMPS:ARP:1,2011-11-01T12:00:00Z,28.4330,-82.6670,14.5,1111122 
COMPS,ioos:station:USF.COMPS:ARP:1,2011-11-01T12:06:00Z,28.4330,-82.6670,14.38,1111122 
COMPS,ioos:station:USF.COMPS:ARP:1,2011-11-01T12:12:00Z,28.4330,-82.6670,14.44,1111122 
COMPS,ioos:station:USF.COMPS:ARP:1,2011-11-01T12:18:00Z,28.4330,-82.6670,14.52,1111122 
COMPS,ioos:station:USF.COMPS:ARP:1,2011-11-01T12:24:00Z,28.4330,-82.6670,14.59,1111122 
COMPS,ioos:station:USF.COMPS:ARP:1,2011-11-01T12:30:00Z,28.4330,-82.6670,14.73,1111122 
COMPS,ioos:station:USF.COMPS:ARP:1,2011-11-01T12:36:00Z,28.4330,-82.6670,14.87,1111122 
COMPS,ioos:station:USF.COMPS:ARP:1,2011-11-01T12:42:00Z,28.4330,-82.6670,15.03,1111122 
COMPS,ioos:station:USF.COMPS:ARP:1,2011-11-01T12:48:00Z,28.4330,-82.6670,15.05,1111122 
COMPS,ioos:station:USF.COMPS:ARP:1,2011-11-01T12:54:00Z,28.4330,-82.6670,15.23,1111122 
COMPS,ioos:station:USF.COMPS:ARP:1,2011-11-01T13:00:00Z,28.4330,-82.6670,15.2,1111122 
COMPS,ioos:station:USF.COMPS:ARP:1,2011-11-01T14:00:00Z,28.4330,-82.6670,17.1,1111122 
COMPS,ioos:station:USF.COMPS:ARP:1,2011-11-01T14:06:00Z,28.4330,-82.6670,17.25,1111122 
COMPS,ioos:station:USF.COMPS:ARP:1,2011-11-01T14:12:00Z,28.4330,-82.6670,17.4,1111122 
COMPS,ioos:station:USF.COMPS:ARP:1,2011-11-01T14:18:00Z,28.4330,-82.6670,17.66,1111122 
COMPS,ioos:station:USF.COMPS:ARP:1,2011-11-01T14:24:00Z,28.4330,-82.6670,17.91,1111122 
COMPS,ioos:station:USF.COMPS:ARP:1,2011-11-01T14:30:00Z,28.4330,-82.6670,18.4,1111122 
COMPS,ioos:station:USF.COMPS:ARP:1,2011-11-01T14:36:00Z,28.4330,-82.6670,18.52,1111122 
COMPS,ioos:station:USF.COMPS:ARP:1,2011-11-01T14:42:00Z,28.4330,-82.6670,18.61,1111122 
COMPS,ioos:station:USF.COMPS:ARP:1,2011-11-01T14:48:00Z,28.4330,-82.6670,18.81,1111122 
COMPS,ioos:station:USF.COMPS:ARP:1,2011-11-01T14:54:00Z,28.4330,-82.6670,18.97,1111122 
COMPS,ioos:station:USF.COMPS:ARP:1,2011-11-01T15:00:00Z,28.4330,-82.6670,19.01,1111122 
COMPS,ioos:station:USF.COMPS:ARP:1,2011-11-01T15:06:00Z,28.4330,-82.6670,19.24,1111122 
COMPS,ioos:station:USF.COMPS:ARP:1,2011-11-01T15:12:00Z,28.4330,-82.6670,19.39,1111122 
COMPS,ioos:station:USF.COMPS:ARP:1,2011-11-01T15:18:00Z,28.4330,-82.6670,19.61,1111122 
COMPS,ioos:station:USF.COMPS:ARP:1,2011-11-01T15:24:00Z,28.4330,-82.6670,20.04,1111122 
COMPS,ioos:station:USF.COMPS:ARP:1,2011-11-01T15:30:00Z,28.4330,-82.6670,20.09,1111122 
COMPS,ioos:station:USF.COMPS:ARP:1,2011-11-01T15:36:00Z,28.4330,-82.6670,20.33,1111122 
COMPS,ioos:station:USF.COMPS:ARP:1,2011-11-01T15:42:00Z,28.4330,-82.6670,20.28,1111122 
COMPS,ioos:station:USF.COMPS:ARP:1,2011-11-01T15:48:00Z,28.4330,-82.6670,20.44,1111122 
COMPS,ioos:station:USF.COMPS:ARP:1,2011-11-01T15:54:00Z,28.4330,-82.6670,20.72,1111122 
COMPS,ioos:station:USF.COMPS:ARP:1,2011-11-01T16:00:00Z,28.4330,-82.6670,20.66,1111122 
COMPS,ioos:station:USF.COMPS:ARP:1,2011-11-01T16:06:00Z,28.4330,-82.6670,20.9,1111122 
COMPS,ioos:station:USF.COMPS:ARP:1,2011-11-01T16:12:00Z,28.4330,-82.6670,21.12,1111122 
COMPS,ioos:station:USF.COMPS:ARP:1,2011-11-01T16:18:00Z,28.4330,-82.6670,21.07,1111122 
COMPS,ioos:station:USF.COMPS:ARP:1,2011-11-01T16:24:00Z,28.4330,-82.6670,21.2,1111122 
COMPS,ioos:station:USF.COMPS:ARP:1,2011-11-01T16:30:00Z,28.4330,-82.6670,21.28,1111122 
COMPS,ioos:station:USF.COMPS:ARP:1,2011-11-01T16:36:00Z,28.4330,-82.6670,21.45,1111122 
COMPS,ioos:station:USF.COMPS:ARP:1,2011-11-01T16:42:00Z,28.4330,-82.6670,21.62,1111122 
COMPS,ioos:station:USF.COMPS:ARP:1,2011-11-01T16:48:00Z,28.4330,-82.6670,21.48,1111122 
COMPS,ioos:station:USF.COMPS:ARP:1,2011-11-01T16:54:00Z,28.4330,-82.6670,21.7,1111122 
COMPS,ioos:station:USF.COMPS:ARP:1,2011-11-01T17:00:00Z,28.4330,-82.6670,21.7,1111122 
COMPS,ioos:station:USF.COMPS:ARP:1,2011-11-01T17:06:00Z,28.4330,-82.6670,21.85,1111122 
COMPS,ioos:station:USF.COMPS:ARP:1,2011-11-01T17:12:00Z,28.4330,-82.6670,22.1,1111122 
COMPS,ioos:station:USF.COMPS:ARP:1,2011-11-01T17:18:00Z,28.4330,-82.6670,22.31,1111122 
COMPS,ioos:station:USF.COMPS:ARP:1,2011-11-01T17:24:00Z,28.4330,-82.6670,22.27,1111122 
COMPS,ioos:station:USF.COMPS:ARP:1,2011-11-01T17:30:00Z,28.4330,-82.6670,22.41,1111122 
COMPS,ioos:station:USF.COMPS:ARP:1,2011-11-01T17:36:00Z,28.4330,-82.6670,22.39,1111122 
COMPS,ioos:station:USF.COMPS:ARP:1,2011-11-01T17:42:00Z,28.4330,-82.6670,22.54,1111122 
COMPS,ioos:station:USF.COMPS:ARP:1,2011-11-01T17:48:00Z,28.4330,-82.6670,22.63,1111122 
COMPS,ioos:station:USF.COMPS:ARP:1,2011-11-01T17:54:00Z,28.4330,-82.6670,22.8,1111122 
COMPS,ioos:station:USF.COMPS:ARP:1,2011-11-01T18:00:00Z,28.4330,-82.6670,22.66,1111122 
COMPS,ioos:station:USF.COMPS:ARP:1,2011-11-01T18:06:00Z,28.4330,-82.6670,22.85,1111122 
COMPS,ioos:station:USF.COMPS:ARP:1,2011-11-01T18:12:00Z,28.4330,-82.6670,22.88,1111122 
COMPS,ioos:station:USF.COMPS:ARP:1,2011-11-01T18:18:00Z,28.4330,-82.6670,22.94,1111122 
COMPS,ioos:station:USF.COMPS:ARP:1,2011-11-01T18:24:00Z,28.4330,-82.6670,22.94,1111122 
COMPS,ioos:station:USF.COMPS:ARP:1,2011-11-01T18:30:00Z,28.4330,-82.6670,23.0,1111122 
COMPS,ioos:station:USF.COMPS:ARP:1,2011-11-01T18:36:00Z,28.4330,-82.6670,23.24,1111122 
COMPS,ioos:station:USF.COMPS:ARP:1,2011-11-01T18:42:00Z,28.4330,-82.6670,23.34,1111122 
COMPS,ioos:station:USF.COMPS:ARP:1,2011-11-01T18:48:00Z,28.4330,-82.6670,23.33,1111122 
COMPS,ioos:station:USF.COMPS:ARP:1,2011-11-01T18:54:00Z,28.4330,-82.6670,23.34,1111122 
COMPS,ioos:station:USF.COMPS:ARP:1,2011-11-01T20:00:00Z,28.4330,-82.6670,23.59,1111122 
COMPS,ioos:station:USF.COMPS:ARP:1,2011-11-01T20:06:00Z,28.4330,-82.6670,23.31,1111122 
COMPS,ioos:station:USF.COMPS:ARP:1,2011-11-01T20:12:00Z,28.4330,-82.6670,23.31,1111122 
COMPS,ioos:station:USF.COMPS:ARP:1,2011-11-01T20:18:00Z,28.4330,-82.6670,23.44,1111122 
COMPS,ioos:station:USF.COMPS:ARP:1,2011-11-01T20:24:00Z,28.4330,-82.6670,23.2,1111122 
COMPS,ioos:station:USF.COMPS:ARP:1,2011-11-01T20:30:00Z,28.4330,-82.6670,23.03,1111122 
COMPS,ioos:station:USF.COMPS:ARP:1,2011-11-01T20:36:00Z,28.4330,-82.6670,22.99,1111122 
COMPS,ioos:station:USF.COMPS:ARP:1,2011-11-01T20:42:00Z,28.4330,-82.6670,23.03,1111122 
COMPS,ioos:station:USF.COMPS:ARP:1,2011-11-01T20:48:00Z,28.4330,-82.6670,22.98,1111122 
COMPS,ioos:station:USF.COMPS:ARP:1,2011-11-01T20:54:00Z,28.4330,-82.6670,23.05,1111122 
COMPS,ioos:station:USF.COMPS:ARP:1,2011-11-01T21:00:00Z,28.4330,-82.6670,22.94,1111122 
COMPS,ioos:station:USF.COMPS:ARP:1,2011-11-01T21:06:00Z,28.4330,-82.6670,22.75,1111122 
COMPS,ioos:station:USF.COMPS:ARP:1,2011-11-01T21:12:00Z,28.4330,-82.6670,22.68,1111122 
COMPS,ioos:station:USF.COMPS:ARP:1,2011-11-01T21:18:00Z,28.4330,-82.6670,22.67,1111122 
COMPS,ioos:station:USF.COMPS:ARP:1,2011-11-01T21:24:00Z,28.4330,-82.6670,22.53,1111122 
COMPS,ioos:station:USF.COMPS:ARP:1,2011-11-01T21:30:00Z,28.4330,-82.6670,22.5,1111122 
COMPS,ioos:station:USF.COMPS:ARP:1,2011-11-01T21:36:00Z,28.4330,-82.6670,22.56,1111122 
COMPS,ioos:station:USF.COMPS:ARP:1,2011-11-01T21:42:00Z,28.4330,-82.6670,22.47,1111122 
COMPS,ioos:station:USF.COMPS:ARP:1,2011-11-01T21:48:00Z,28.4330,-82.6670,22.41,1111122 
COMPS,ioos:station:USF.COMPS:ARP:1,2011-11-01T21:54:00Z,28.4330,-82.6670,22.4,1111122 
COMPS,ioos:station:USF.COMPS:ARP:1,2011-11-01T23:00:00Z,28.4330,-82.6670,20.39,1111122 
COMPS,ioos:station:USF.COMPS:ARP:1,2011-11-01T23:06:00Z,28.4330,-82.6670,20.26,1111122 
COMPS,ioos:station:USF.COMPS:ARP:1,2011-11-01T23:12:00Z,28.4330,-82.6670,20.18,1111122 
COMPS,ioos:station:USF.COMPS:ARP:1,2011-11-01T23:18:00Z,28.4330,-82.6670,20.06,1111122 
COMPS,ioos:station:USF.COMPS:ARP:1,2011-11-01T23:24:00Z,28.4330,-82.6670,19.89,1111122 
COMPS,ioos:station:USF.COMPS:ARP:1,2011-11-01T23:30:00Z,28.4330,-82.6670,19.84,1111122 
COMPS,ioos:station:USF.COMPS:ARP:1,2011-11-01T23:36:00Z,28.4330,-82.6670,19.73,1111122 
COMPS,ioos:station:USF.COMPS:ARP:1,2011-11-01T23:42:00Z,28.4330,-82.6670,19.57,1111122 
COMPS,ioos:station:USF.COMPS:ARP:1,2011-11-01T23:48:00Z,28.4330,-82.6670,19.46,1111122 
COMPS,ioos:station:USF.COMPS:ARP:1,2011-11-01T23:54:00Z,28.4330,-82.6670,19.45,1111122 
COMPS,ioos:station:USF.COMPS:ARP:1,2011-11-02T00:00:00Z,28.4330,-82.6670,19.5,1111122 
COMPS,ioos:station:USF.COMPS:ARP:1,2011-11-02T02:00:00Z,28.4330,-82.6670,17.56,1111122 
COMPS,ioos:station:USF.COMPS:ARP:1,2011-11-02T02:06:00Z,28.4330,-82.6670,17.53,1111122 
COMPS,ioos:station:USF.COMPS:ARP:1,2011-11-02T02:12:00Z,28.4330,-82.6670,17.49,1111122 
COMPS,ioos:station:USF.COMPS:ARP:1,2011-11-02T02:18:00Z,28.4330,-82.6670,17.41,1111122 
COMPS,ioos:station:USF.COMPS:ARP:1,2011-11-02T02:24:00Z,28.4330,-82.6670,17.4,1111122 
COMPS,ioos:station:USF.COMPS:ARP:1,2011-11-02T02:30:00Z,28.4330,-82.6670,17.41,1111122 
COMPS,ioos:station:USF.COMPS:ARP:1,2011-11-02T02:36:00Z,28.4330,-82.6670,17.39,1111122 
COMPS,ioos:station:USF.COMPS:ARP:1,2011-11-02T02:42:00Z,28.4330,-82.6670,17.31,1111122 
COMPS,ioos:station:USF.COMPS:ARP:1,2011-11-02T02:48:00Z,28.4330,-82.6670,17.22,1111122 
COMPS,ioos:station:USF.COMPS:ARP:1,2011-11-02T02:54:00Z,28.4330,-82.6670,17.28,1111122 
COMPS,ioos:station:USF.COMPS:ARP:1,2011-11-02T03:00:00Z,28.4330,-82.6670,17.16,1111122 
COMPS,ioos:station:USF.COMPS:ARP:1,2011-11-02T03:06:00Z,28.4330,-82.6670,17.1,1111122 
COMPS,ioos:station:USF.COMPS:ARP:1,2011-11-02T03:12:00Z,28.4330,-82.6670,17.05,1111122 
COMPS,ioos:station:USF.COMPS:ARP:1,2011-11-02T03:18:00Z,28.4330,-82.6670,16.99,1111122 
COMPS,ioos:station:USF.COMPS:ARP:1,2011-11-02T03:24:00Z,28.4330,-82.6670,16.89,1111122 
COMPS,ioos:station:USF.COMPS:ARP:1,2011-11-02T03:30:00Z,28.4330,-82.6670,16.89,1111122 
COMPS,ioos:station:USF.COMPS:ARP:1,2011-11-02T03:36:00Z,28.4330,-82.6670,16.83,1111122 
COMPS,ioos:station:USF.COMPS:ARP:1,2011-11-02T03:42:00Z,28.4330,-82.6670,16.75,1111122 
COMPS,ioos:station:USF.COMPS:ARP:1,2011-11-02T03:48:00Z,28.4330,-82.6670,16.75,1111122 
COMPS,ioos:station:USF.COMPS:ARP:1,2011-11-02T03:54:00Z,28.4330,-82.6670,16.8,1111122 
COMPS,ioos:station:USF.COMPS:ARP:1,2011-11-02T06:00:00Z,28.4330,-82.6670,15.96,1111122 
COMPS,ioos:station:USF.COMPS:ARP:1,2011-11-02T06:06:00Z,28.4330,-82.6670,15.93,1111122 
COMPS,ioos:station:USF.COMPS:ARP:1,2011-11-02T06:12:00Z,28.4330,-82.6670,15.85,1111122 
COMPS,ioos:station:USF.COMPS:ARP:1,2011-11-02T06:18:00Z,28.4330,-82.6670,15.9,1111122 
COMPS,ioos:station:USF.COMPS:ARP:1,2011-11-02T06:24:00Z,28.4330,-82.6670,15.81,1111122 
COMPS,ioos:station:USF.COMPS:ARP:1,2011-11-02T06:30:00Z,28.4330,-82.6670,15.8,1111122 
COMPS,ioos:station:USF.COMPS:ARP:1,2011-11-02T06:36:00Z,28.4330,-82.6670,15.77,1111122 
COMPS,ioos:station:USF.COMPS:ARP:1,2011-11-02T06:42:00Z,28.4330,-82.6670,15.79,1111122 
COMPS,ioos:station:USF.COMPS:ARP:1,2011-11-02T06:48:00Z,28.4330,-82.6670,15.74,1111122 
COMPS,ioos:station:USF.COMPS:ARP:1,2011-11-02T06:54:00Z,28.4330,-82.6670,15.87,1111122 
COMPS,ioos:station:USF.COMPS:ARP:1,2011-11-02T08:00:00Z,28.4330,-82.6670,15.4,1111122 
COMPS,ioos:station:USF.COMPS:ARP:1,2011-11-02T08:06:00Z,28.4330,-82.6670,15.39,1111122 
COMPS,ioos:station:USF.COMPS:ARP:1,2011-11-02T08:12:00Z,28.4330,-82.6670,15.27,1111122 
COMPS,ioos:station:USF.COMPS:ARP:1,2011-11-02T08:18:00Z,28.4330,-82.6670,15.2,1111122 
COMPS,ioos:station:USF.COMPS:ARP:1,2011-11-02T08:24:00Z,28.4330,-82.6670,15.1,1111122 
COMPS,ioos:station:USF.COMPS:ARP:1,2011-11-02T08:30:00Z,28.4330,-82.6670,14.98,1111122 
COMPS,ioos:station:USF.COMPS:ARP:1,2011-11-02T08:36:00Z,28.4330,-82.6670,14.96,1111122 
COMPS,ioos:station:USF.COMPS:ARP:1,2011-11-02T08:42:00Z,28.4330,-82.6670,14.95,1111122 
COMPS,ioos:station:USF.COMPS:ARP:1,2011-11-02T08:48:00Z,28.4330,-82.6670,14.9,1111122 
COMPS,ioos:station:USF.COMPS:ARP:1,2011-11-02T08:54:00Z,28.4330,-82.6670,14.94,1111122 
COMPS,ioos:station:USF.COMPS:ARP:1,2011-11-02T09:00:00Z,28.4330,-82.6670,14.73,1111122 
COMPS,ioos:station:USF.COMPS:ARP:1,2011-11-02T09:06:00Z,28.4330,-82.6670,14.64,1111122 
COMPS,ioos:station:USF.COMPS:ARP:1,2011-11-02T09:12:00Z,28.4330,-82.6670,14.53,1111122 
COMPS,ioos:station:USF.COMPS:ARP:1,2011-11-02T09:18:00Z,28.4330,-82.6670,14.43,1111122 
COMPS,ioos:station:USF.COMPS:ARP:1,2011-11-02T09:24:00Z,28.4330,-82.6670,14.38,1111122 
COMPS,ioos:station:USF.COMPS:ARP:1,2011-11-02T09:30:00Z,28.4330,-82.6670,14.3,1111122 
COMPS,ioos:station:USF.COMPS:ARP:1,2011-11-02T09:36:00Z,28.4330,-82.6670,14.29,1111122 
COMPS,ioos:station:USF.COMPS:ARP:1,2011-11-02T09:42:00Z,28.4330,-82.6670,14.25,1111122 
COMPS,ioos:station:USF.COMPS:ARP:1,2011-11-02T09:48:00Z,28.4330,-82.6670,14.16,1111122 
COMPS,ioos:station:USF.COMPS:ARP:1,2011-11-02T09:54:00Z,28.4330,-82.6670,14.29,1111122 
COMPS,ioos:station:USF.COMPS:ARP:1,2011-11-02T11:00:00Z,28.4330,-82.6670,13.9,1111122 
COMPS,ioos:station:USF.COMPS:ARP:1,2011-11-02T11:06:00Z,28.4330,-82.6670,13.89,1111122 
COMPS,ioos:station:USF.COMPS:ARP:1,2011-11-02T11:12:00Z,28.4330,-82.6670,13.92,1111122 
COMPS,ioos:station:USF.COMPS:ARP:1,2011-11-02T11:18:00Z,28.4330,-82.6670,13.84,1111122 
COMPS,ioos:station:USF.COMPS:ARP:1,2011-11-02T11:24:00Z,28.4330,-82.6670,13.76,1111122 
COMPS,ioos:station:USF.COMPS:ARP:1,2011-11-02T11:30:00Z,28.4330,-82.6670,13.75,1111122 
COMPS,ioos:station:USF.COMPS:ARP:1,2011-11-02T11:36:00Z,28.4330,-82.6670,13.74,1111122 
COMPS,ioos:station:USF.COMPS:ARP:1,2011-11-02T11:42:00Z,28.4330,-82.6670,13.63,1111122 
COMPS,ioos:station:USF.COMPS:ARP:1,2011-11-02T11:48:00Z,28.4330,-82.6670,13.61,1111122 
COMPS,ioos:station:USF.COMPS:ARP:1,2011-11-02T11:54:00Z,28.4330,-82.6670,13.67,1111122 
COMPS,ioos:station:USF.COMPS:ARP:1,2011-11-02T12:00:00Z,28.4330,-82.6670,13.7,1111122 
COMPS,ioos:station:USF.COMPS:ARP:1,2011-11-02T12:06:00Z,28.4330,-82.6670,13.62,1111122 
COMPS,ioos:station:USF.COMPS:ARP:1,2011-11-02T12:12:00Z,28.4330,-82.6670,13.73,1111122 
COMPS,ioos:station:USF.COMPS:ARP:1,2011-11-02T12:18:00Z,28.4330,-82.6670,13.77,1111122 
COMPS,ioos:station:USF.COMPS:ARP:1,2011-11-02T12:24:00Z,28.4330,-82.6670,13.92,1111122 
COMPS,ioos:station:USF.COMPS:ARP:1,2011-11-02T12:30:00Z,28.4330,-82.6670,14.11,1111122 
COMPS,ioos:station:USF.COMPS:ARP:1,2011-11-02T12:36:00Z,28.4330,-82.6670,14.28,1111122 
COMPS,ioos:station:USF.COMPS:ARP:1,2011-11-02T12:42:00Z,28.4330,-82.6670,14.51,1111122 
COMPS,ioos:station:USF.COMPS:ARP:1,2011-11-02T12:48:00Z,28.4330,-82.6670,14.77,1111122 
COMPS,ioos:station:USF.COMPS:ARP:1,2011-11-02T12:54:00Z,28.4330,-82.6670,15.17,1111122 
COMPS,ioos:station:USF.COMPS:ARP:1,2011-11-02T14:00:00Z,28.4330,-82.6670,18.51,1111122 
COMPS,ioos:station:USF.COMPS:ARP:1,2011-11-02T14:06:00Z,28.4330,-82.6670,18.87,1111122 
COMPS,ioos:station:USF.COMPS:ARP:1,2011-11-02T14:12:00Z,28.4330,-82.6670,19.2,1111122 
COMPS,ioos:station:USF.COMPS:ARP:1,2011-11-02T14:18:00Z,28.4330,-82.6670,19.53,1111122 
COMPS,ioos:station:USF.COMPS:ARP:1,2011-11-02T14:24:00Z,28.4330,-82.6670,19.86,1111122 
COMPS,ioos:station:USF.COMPS:ARP:1,2011-11-02T14:30:00Z,28.4330,-82.6670,20.23,1111122 
COMPS,ioos:station:USF.COMPS:ARP:1,2011-11-02T14:36:00Z,28.4330,-82.6670,20.44,1111122 
COMPS,ioos:station:USF.COMPS:ARP:1,2011-11-02T14:42:00Z,28.4330,-82.6670,20.78,1111122 
COMPS,ioos:station:USF.COMPS:ARP:1,2011-11-02T14:48:00Z,28.4330,-82.6670,20.95,1111122 
COMPS,ioos:station:USF.COMPS:ARP:1,2011-11-02T14:54:00Z,28.4330,-82.6670,21.27,1111122 
COMPS,ioos:station:USF.COMPS:ARP:1,2011-11-02T15:00:00Z,28.4330,-82.6670,21.32,1111122 
COMPS,ioos:station:USF.COMPS:ARP:1,2011-11-02T15:06:00Z,28.4330,-82.6670,21.59,1111122 
COMPS,ioos:station:USF.COMPS:ARP:1,2011-11-02T15:12:00Z,28.4330,-82.6670,21.78,1111122 
COMPS,ioos:station:USF.COMPS:ARP:1,2011-11-02T15:18:00Z,28.4330,-82.6670,21.93,1111122 
COMPS,ioos:station:USF.COMPS:ARP:1,2011-11-02T15:24:00Z,28.4330,-82.6670,22.06,1111122 
COMPS,ioos:station:USF.COMPS:ARP:1,2011-11-02T15:30:00Z,28.4330,-82.6670,22.37,1111122 
COMPS,ioos:station:USF.COMPS:ARP:1,2011-11-02T15:36:00Z,28.4330,-82.6670,22.57,1111122 
COMPS,ioos:station:USF.COMPS:ARP:1,2011-11-02T15:42:00Z,28.4330,-82.6670,22.76,1111122 
COMPS,ioos:station:USF.COMPS:ARP:1,2011-11-02T15:48:00Z,28.4330,-82.6670,22.63,1111122 
COMPS,ioos:station:USF.COMPS:ARP:1,2011-11-02T15:54:00Z,28.4330,-82.6670,22.83,1111122 
COMPS,ioos:station:USF.COMPS:ARP:1,2011-11-02T16:00:00Z,28.4330,-82.6670,22.8,1111122 
COMPS,ioos:station:USF.COMPS:ARP:1,2011-11-02T17:00:00Z,28.4330,-82.6670,23.84,1111122 
COMPS,ioos:station:USF.COMPS:ARP:1,2011-11-02T17:06:00Z,28.4330,-82.6670,23.69,1111122 
COMPS,ioos:station:USF.COMPS:ARP:1,2011-11-02T17:12:00Z,28.4330,-82.6670,23.85,1111122 
COMPS,ioos:station:USF.COMPS:ARP:1,2011-11-02T17:18:00Z,28.4330,-82.6670,24.14,1111122 
COMPS,ioos:station:USF.COMPS:ARP:1,2011-11-02T17:24:00Z,28.4330,-82.6670,24.18,1111122 
COMPS,ioos:station:USF.COMPS:ARP:1,2011-11-02T17:30:00Z,28.4330,-82.6670,24.01,1111122 
COMPS,ioos:station:USF.COMPS:ARP:1,2011-11-02T17:36:00Z,28.4330,-82.6670,24.23,1111122 
COMPS,ioos:station:USF.COMPS:ARP:1,2011-11-02T17:42:00Z,28.4330,-82.6670,24.36,1111122 
COMPS,ioos:station:USF.COMPS:ARP:1,2011-11-02T17:48:00Z,28.4330,-82.6670,24.18,1111122 
COMPS,ioos:station:USF.COMPS:ARP:1,2011-11-02T17:54:00Z,28.4330,-82.6670,24.73,1111122 
COMPS,ioos:station:USF.COMPS:ARP:1,2011-11-02T18:00:00Z,28.4330,-82.6670,25.0,1111122 
COMPS,ioos:station:USF.COMPS:ARP:1,2011-11-02T18:06:00Z,28.4330,-82.6670,24.87,1111122 
COMPS,ioos:station:USF.COMPS:ARP:1,2011-11-02T18:12:00Z,28.4330,-82.6670,24.63,1111122 
COMPS,ioos:station:USF.COMPS:ARP:1,2011-11-02T18:18:00Z,28.4330,-82.6670,24.76,1111122 
COMPS,ioos:station:USF.COMPS:ARP:1,2011-11-02T18:24:00Z,28.4330,-82.6670,24.92,1111122 
COMPS,ioos:station:USF.COMPS:ARP:1,2011-11-02T18:30:00Z,28.4330,-82.6670,24.86,1111122 
COMPS,ioos:station:USF.COMPS:ARP:1,2011-11-02T18:36:00Z,28.4330,-82.6670,25.1,1111122 